Regional Weather Roundup
Issued by NWS Sterling, VA

Home | Current Version | Previous Version | Text Only | Print | Product List | Glossary Off
Versions: 1 2 3 4 5 6 7 8 9 10 11 12 13 14 15 16 17 18 19 20 21 22 23 24 25 26 27

000
ASUS41 KLWX 260511
RWRLWX

REGIONAL WEATHER ROUNDUP
NATIONAL WEATHER SERVICE BALTIMORE MD/WASHINGTON DC
100 AM EDT TUE JUL 26 2016

Note: "FAIR" indicates few or no clouds below 12,000 feet
with no significant weather and/or obstructions to visibility.
 TC=TEMPERATURE CELSIUS

 * =Non NWS site. Station does not report precipitation (e.g. rain,
    snow, etc.), thunder, or fog.

DCZ001-MDZ009-015-VAZ040>042-051-053>054-260600-
WASHINGTON METRO

CITY           SKY/WX    TMP DP  RH WIND       PRES   REMARKS
WASHINGTON NAT FAIR      82  72  71 NE8       29.91S
DULLES         FAIR      83  71  67 N7        29.92S
ANDREWS AFB    CLOUDY    76  74  93 NE5       29.91F
FT BELVOIR     FAIR      77  75  93 NW5       29.91R
COLLEGE PARK*  FAIR      77  70  78 N3        29.91F
LEESBURG*      FAIR      81  75  83 NE3       29.94S
MANASSAS*      FAIR      81  75  83 CALM      29.91S
GAITHERSBURG*  PTCLDY    75  70  83 CALM      29.98R

$$

MDZ006>007-011-014-260600-
BALTIMORE METRO

CITY           SKY/WX    TMP DP  RH WIND       PRES   REMARKS
BWI AIRPORT    MOCLDY    79  71  76 CALM      29.92R
MD SCIENCE CTR   N/A     81  70  69 MISG      29.92S
MARTIN STATE   MOCLDY    77  73  88 CALM      29.93S
ANNAPOLIS      CLOUDY    78  75  90 W3        29.90F
FORT MEADE*    MOCLDY    72  72 100 N5        29.94F

$$

MDZ012-015-019>023-260600-
MARYLAND EASTERN SHORE

CITY           SKY/WX    TMP DP  RH WIND       PRES   REMARKS
OCEAN CITY     PTCLDY    80  75  84 SW5       29.89F
SALISBURY      MOCLDY    82  77  84 NW14G20   29.90R THUNDER HX  90
BAY BRIDGE AP* CLOUDY    77  73  88 SE6       29.90F
CAMBRIDGE*     CLOUDY    73  72  94 CALM      29.90R
EASTON*        CLOUDY    76  76 100 CALM      29.93F

$$

MDZ017>025-260600-
SOUTHERN MARYLAND

CITY           SKY/WX    TMP DP  RH WIND       PRES   REMARKS
PATUXENT RIVER CLOUDY    78  75  90 NW17      29.93R THUNDER FOG
ST INIGOES     TSTM      82  75  79 MISG      29.92R
LEONARDTOWN*   CLOUDY    77  73  88 E5        29.93F

$$

MDZ003>005-260600-
NORTH CENTRAL MARYLAND

CITY           SKY/WX    TMP DP  RH WIND       PRES   REMARKS
FREDERICK*     PTCLDY    73  73 100 CALM      29.96S
HAGERSTOWN APT CLOUDY    77  72  84 CALM      29.94S

$$

MDZ501>502-260600-
WESTERN MARYLAND

CITY           SKY/WX    TMP DP  RH WIND       PRES   REMARKS
OAKLAND*       CLOUDY    68  66  94 W7        30.10R
CUMBERLAND*    CLOUDY    77  70  78 S3        30.01R

$$

VAZ025>031-260600-
SHENANDOAH VALLEY

CITY           SKY/WX    TMP DP  RH WIND       PRES   REMARKS
WINCHESTER*    FAIR      77  72  83 CALM      29.95S
FRONT ROYAL*   FAIR      79  70  73 S3        29.94S
LURAY*         FAIR      75  75 100 CALM      29.97S
NEW MARKET*    FAIR     N/A N/A N/A CALM      29.96F
STAUNTON*      FAIR      76  71  85 CALM      30.01S
WAYNESBORO*    FAIR      79  70  73 CALM      30.01S

$$

WVZ021-048>050-054>055-260600-
EASTERN WEST VIRGINIA PANHANDLE

CITY           SKY/WX    TMP DP  RH WIND       PRES   REMARKS
MARTINSBURG    FAIR      79  68  69 W3        29.93S
PETERSBURG*    FAIR      77  72  83 CALM      29.98S

$$

VAZ036>039-050-260600-
CENTRAL FOOTHILLS

CITY           SKY/WX    TMP DP  RH WIND       PRES   REMARKS
CHARLOTTESVILL FAIR      81  72  74 CALM      29.94F
CULPEPER*      FAIR      77  76  96 CALM      29.93S
ORANGE*          N/A     79  77  94 CALM      29.95R
GORDONSVILLE*  FAIR      79  75  89 CALM      29.93S
WARRENTON*     FAIR      77  70  80 CALM      29.92R

$$

VAZ055>057-260600-
NORTH AND CENTRAL PIEDMONT

CITY           SKY/WX    TMP DP  RH WIND       PRES   REMARKS
FREDERICKSBRG* MOCLDY    84  77  77 W5        29.90R HX  94
STAFFORD*      FAIR      78  75  92 NW3       29.95S

$$

NCZ024-NYZ072-PAZ021-071-VAZ022-071-260600-
OTHER REGIONAL OBSERVATIONS

CITY           SKY/WX    TMP DP  RH WIND       PRES   REMARKS
NEW YORK CITY  PTCLDY    74  71  91 VRB6      29.90F
PHILADELPHIA   PTCLDY    75  73  93 W8        29.91F
PITTSBURGH     CLOUDY    74  69  85 W6        29.99R
ROANOKE        FAIR      78  73  84 CALM      30.02F
RICHMOND       MOCLDY    84  75  74 SW12      29.92F HX  92
RALEIGH        PTCLDY    82  73  74 SW14      30.00S

$$

ANZ530>537-260600-
MARINE OBSERVATIONS

STATION/POSITION TIME  TEMP    WIND        PRES
                       AIR SEA DIR/SP/G
                 (UTC) (F)     (DEG/KT/KT) (MB)
THOMAS PT LIGHT  0500   78 84  130/ 13/ 15 1013.8F
BALT KEY BRIDGE  0442   80      30/  4/  5 1013.0R
COVE POINT       0442   80      80/  8/ 13 1013.3R
LEWISETTA        0442   87 88  230/ 13/ 15 1011.5F
SOLOMONS ISLAND  0442   78 84   10/ 15/ 19   N/A
PINEY POINT      0448          360/ 27/ 31   N/A

$$





USA.gov is the U.S. government's official web portal to all federal, state and local government web resources and services.